LZ0VRC-10 Weather Reports


Display with metric or nautical units.
time (UTC)temp
F
wind
direction
speed
MPH
gust
MPH
rain 1hr
in
rain 24hr
in
rain mn
in
humidity
%
barometer
mb
20260503212009 43 0.0 0.0 0.00 0.00 0.00 60 1021.0
20260503212004 43 0.0 0.0 0.00 0.00 0.00 60 1021.0
20260503210509 44 0.0 0.0 0.00 0.00 0.00 59 1021.0
20260503210504 44 0.0 0.0 0.00 0.00 0.00 59 1021.0
20260503205009 44 0.0 0.0 0.00 0.00 0.00 56 1021.0
20260503205004 44 0.0 0.0 0.00 0.00 0.00 56 1021.0
20260503203504 44 0.0 0.0 0.00 0.00 0.00 58 1021.2
20260503202009 44 0.0 0.0 0.00 0.00 0.00 58 1021.4
20260503202004 44 0.0 0.0 0.00 0.00 0.00 58 1021.4
20260503200509 45 0.0 0.0 0.00 0.00 0.00 57 1021.5
20260503200504 45 0.0 0.0 0.00 0.00 0.00 57 1021.5
20260503195009 44 0.0 0.0 0.00 0.00 0.00 60 1021.6
20260503195004 44 0.0 0.0 0.00 0.00 0.00 60 1021.6
20260503193509 44 0.0 0.0 0.00 0.00 0.00 60 1021.6
20260503193504 44 0.0 0.0 0.00 0.00 0.00 60 1021.6
20260503192004 44 0.0 0.0 0.00 0.00 0.00 61 1021.5
20260503190504 44 0.0 0.0 0.00 0.00 0.00 63 1021.4
20260503185009 45 0.0 0.0 0.00 0.00 0.00 59 1021.3
20260503185004 45 0.0 0.0 0.00 0.00 0.00 59 1021.3
20260503183504 45 0.0 0.0 0.00 0.00 0.00 58 1021.3
20260503182009 46 0.0 0.0 0.00 0.00 0.00 58 1021.2
20260503182005 46 0.0 0.0 0.00 0.00 0.00 58 1021.2
20260503180509 46 0.0 0.0 0.00 0.00 0.00 57 1021.2
20260503180504 46 0.0 0.0 0.00 0.00 0.00 57 1021.2
20260503175004 47 0.0 0.0 0.00 0.00 0.00 54 1021.2
20260503173509 47 0.0 0.0 0.00 0.00 0.00 52 1021.3
20260503173504 47 0.0 0.0 0.00 0.00 0.00 52 1021.3
20260503172009 51 0.0 0.0 0.00 0.00 0.00 48 1021.4
20260503172004 51 0.0 0.0 0.00 0.00 0.00 48 1021.4
20260503170509 55 0.0 0.0 0.00 0.00 0.00 41 1021.4
20260503170504 55 0.0 0.0 0.00 0.00 0.00 41 1021.4
20260503150504 62 0.0 0.0 0.00 0.00 0.00 31 1021.7
20260503130510 57 0.0 0.0 0.00 0.00 0.00 40 1022.9
20260503130505 57 0.0 0.0 0.00 0.00 0.00 40 1022.9
20260503110505 53 0.0 0.0 0.00 0.00 0.00 41 1023.5
20260503090510 54 0.0 0.0 0.00 0.00 0.00 57 1024.1
20260503090505 54 0.0 0.0 0.00 0.00 0.00 57 1024.1
20260503080510 52 0.0 0.0 0.00 0.00 0.00 68 1024.2
20260503080505 52 0.0 0.0 0.00 0.00 0.00 68 1024.2
20260503072005 49 0.0 0.0 0.00 0.00 0.00 74 1024.2
20260503070505 51 0.0 0.0 0.00 0.00 0.00 73 1024.1
20260503055010 49 0.0 0.0 0.00 0.00 0.00 81 1023.8
20260503055006 49 0.0 0.0 0.00 0.00 0.00 81 1023.8
20260503053510 47 0.0 0.0 0.00 0.00 0.00 89 1023.8
20260503053506 47 0.0 0.0 0.00 0.00 0.00 89 1023.8
20260503052010 46 0.0 0.0 0.00 0.00 0.00 94 1023.7
20260503052006 46 0.0 0.0 0.00 0.00 0.00 94 1023.7
20260503050511 44 0.0 0.0 0.00 0.00 0.00 97 1023.6
20260503050506 44 0.0 0.0 0.00 0.00 0.00 97 1023.6
20260503045011 45 0.0 0.0 0.00 0.00 0.00 99 1023.6
20260503045006 45 0.0 0.0 0.00 0.00 0.00 99 1023.6
20260503043511 43 0.0 0.0 0.00 0.00 0.00 99 1023.3
20260503043506 43 0.0 0.0 0.00 0.00 0.00 99 1023.3
20260503042011 43 0.0 0.0 0.00 0.00 0.00 99 1023.2
20260503042006 43 0.0 0.0 0.00 0.00 0.00 99 1023.2
20260503040511 42 0.0 0.0 0.00 0.00 0.00 99 1023.0
20260503040506 42 0.0 0.0 0.00 0.00 0.00 99 1023.0
20260503035011 42 0.0 0.0 0.00 0.00 0.00 99 1022.8
20260503035006 42 0.0 0.0 0.00 0.00 0.00 99 1022.8
20260503033511 41 0.0 0.0 0.00 0.00 0.00 99 1022.7
20260503033506 41 0.0 0.0 0.00 0.00 0.00 99 1022.7
20260503032011 41 0.0 0.0 0.00 0.00 0.00 99 1022.7
20260503032006 41 0.0 0.0 0.00 0.00 0.00 99 1022.7
20260503030511 41 0.0 0.0 0.00 0.00 0.00 99 1022.7
20260503030506 41 0.0 0.0 0.00 0.00 0.00 99 1022.7
20260503025011 41 0.0 0.0 0.00 0.00 0.00 99 1022.6
20260503025006 41 0.0 0.0 0.00 0.00 0.00 99 1022.6
20260503023511 40 0.0 0.0 0.00 0.00 0.00 99 1022.5
20260503023506 40 0.0 0.0 0.00 0.00 0.00 99 1022.5
20260503022006 40 0.0 0.0 0.00 0.00 0.00 99 1022.4
20260503020506 40 0.0 0.0 0.00 0.00 0.00 99 1022.4
20260503015011 39 0.0 0.0 0.00 0.00 0.00 99 1022.5
20260503015006 39 0.0 0.0 0.00 0.00 0.00 99 1022.5
20260503013511 40 0.0 0.0 0.00 0.00 0.00 99 1022.4
20260503013506 40 0.0 0.0 0.00 0.00 0.00 99 1022.4
20260503012006 40 0.0 0.0 0.00 0.00 0.00 99 1022.4
20260503010511 41 0.0 0.0 0.00 0.00 0.00 99 1022.4
20260503010506 41 0.0 0.0 0.00 0.00 0.00 99 1022.4
20260503005006 41 0.0 0.0 0.00 0.00 0.00 99 1022.3
20260503003511 41 0.0 0.0 0.00 0.00 0.00 99 1022.4
20260503003506 41 0.0 0.0 0.00 0.00 0.00 99 1022.4
20260503002011 42 0.0 0.0 0.00 0.00 0.00 99 1022.5
20260503002006 42 0.0 0.0 0.00 0.00 0.00 99 1022.5
20260503000511 42 0.0 0.0 0.00 0.00 0.00 99 1022.5
20260503000506 42 0.0 0.0 0.00 0.00 0.00 99 1022.5
20260502235006 42 0.0 0.0 0.00 0.00 0.00 99 1022.5
20260502233511 42 0.0 0.0 0.00 0.00 0.00 99 1022.6
20260502233506 42 0.0 0.0 0.00 0.00 0.00 99 1022.6
20260502232011 42 0.0 0.0 0.00 0.00 0.00 99 1022.7
20260502232006 42 0.0 0.0 0.00 0.00 0.00 99 1022.7
20260502230511 43 0.0 0.0 0.00 0.00 0.00 99 1023.0
20260502230506 43 0.0 0.0 0.00 0.00 0.00 99 1023.0
20260502225011 42 0.0 0.0 0.00 0.00 0.00 99 1022.9
20260502225006 42 0.0 0.0 0.00 0.00 0.00 99 1022.9
20260502223511 43 0.0 0.0 0.00 0.00 0.00 99 1023.1
20260502223506 43 0.0 0.0 0.00 0.00 0.00 99 1023.1
20260502222011 43 0.0 0.0 0.00 0.00 0.00 99 1023.0
20260502222007 43 0.0 0.0 0.00 0.00 0.00 99 1023.0
20260502220511 43 0.0 0.0 0.00 0.00 0.00 99 1022.8
20260502220507 43 0.0 0.0 0.00 0.00 0.00 99 1022.8
20260502215006 43 0.0 0.0 0.00 0.00 0.00 99 1022.9
20260502213507 43 0.0 0.0 0.00 0.00 0.00 99 1023.3